This is the latest recevied weather packets stored in our database for station/object SQ3MKP-13. If no packets are shown the sender has not sent any weather packets the latest 10 day(s).
| Time | Temp. | Humidity | Pressure | Rain* | Wind** | Luminosity | Snow |
|---|---|---|---|---|---|---|---|
| 1777731120 | 24.44° C | 32% | 1010.5 hPa | - | - | 75 W/m² | - |
| 1777730519 | 24.44° C | 30% | 1010.6 hPa | - | - | 74 W/m² | - |
| 1777730218 | 25.56° C | 29% | 1010.7 hPa | - | - | 74 W/m² | - |
| 1777729917 | 25.56° C | 29% | 1010.7 hPa | - | - | 76 W/m² | - |
| 1777729616 | 25° C | 30% | 1010.8 hPa | - | - | 269 W/m² | - |
| 1777729315 | 24.44° C | 30% | 1010.8 hPa | - | - | 412 W/m² | - |
| 1777729014 | 25° C | 30% | 1010.9 hPa | - | - | 488 W/m² | - |
| 1777728713 | 24.44° C | 29% | 1010.8 hPa | - | - | 499 W/m² | - |
| 1777728412 | 24.44° C | 30% | 1011 hPa | - | - | 519 W/m² | - |
| 1777728112 | 24.44° C | 30% | 1011.1 hPa | - | - | 530 W/m² | - |
| 1777727811 | 24.44° C | 31% | 1011.1 hPa | - | - | 541 W/m² | - |
| 1777727510 | 24.44° C | 31% | 1011.2 hPa | - | - | 553 W/m² | - |
| 1777727209 | 23.33° C | 32% | 1011.3 hPa | - | - | 566 W/m² | - |
| 1777726907 | 24.44° C | 31% | 1011.5 hPa | - | - | 578 W/m² | - |
| 1777726607 | 24.44° C | 31% | 1011.5 hPa | - | - | 588 W/m² | - |
| 1777726306 | 23.89° C | 31% | 1011.5 hPa | - | - | 598 W/m² | - |
| 1777726005 | 23.89° C | 31% | 1011.6 hPa | - | - | 604 W/m² | - |
| 1777725704 | 23.89° C | 33% | 1011.6 hPa | - | - | 609 W/m² | - |
| 1777725403 | 23.89° C | 32% | 1011.7 hPa | - | - | 620 W/m² | - |
| 1777725102 | 23.89° C | 32% | 1011.8 hPa | - | - | 627 W/m² | - |
| 1777724801 | 24.44° C | 33% | 1011.9 hPa | - | - | 636 W/m² | - |
| 1777724499 | 23.89° C | 31% | 1011.9 hPa | - | - | 643 W/m² | - |
| 1777724199 | 23.33° C | 32% | 1012 hPa | - | - | 648 W/m² | - |
| 1777723897 | 23.89° C | 32% | 1012.1 hPa | - | - | 655 W/m² | - |
| 1777723596 | 23.89° C | 32% | 1012.1 hPa | - | - | 657 W/m² | - |
* Rain since midnight (hover to see other rain measurements)
** Current wind speed in m/s (hover to see current wind gust speed)